Location: Mahannah Oil Field
(37.4664°N, 96.6003°W)
Time: 01:13:09
(UTC+00:00)

A-11 Canister half - Pass Details

Date: 02 February 2021
Orbit: 1524 x 1684 km, 47.3° (Epoch: 25 February)

Event Time Altitude Azimuth Distance (km) Brightness Sun altitude
Rises 23:18:08 0° 299° (WNW) 4,698 12.1 5.4°
Reaches altitude 10° 23:21:12 10° 302° (WNW) 3,727 11.6 4.8°
Maximum altitude 23:30:36 66° 24° (NNE) 1,701 9.2 3.1°
Drops below altitude 10° 23:40:18 10° 106° (ESE) 3,840 10.6 1.4°
Sets 23:43:30 0° 109° (ESE) 4,846 11.2 0.8°
